Montross, Virginia, United States (22520)
Lat: 38.09N, Lon: 76.83W
Wx Zone: VAZ075
Local Info
Past Weather Observations for Sunday, August 2, 2015

NOTE: This archive is for the closest National Weather Service station to Montross. Information may differ from the station used for current weather conditions.

Click here for Long-term Archive

Time Weather Temperature Dewpoint Humidity Pressure Winds Precip Visibility
23:52
Partly Cloudy
79°F / 26°C 73°F / 23°C 84% 29.89 in
(1012 mb)
NW 6.9 mph
(NW 11 kph)
- 10SM
22:52
Clear
75°F / 24°C 70°F / 21°C 83% 29.89 in
(1012 mb)
W 3.5 mph
(W 6 kph)
- 10SM
21:52
Partly Cloudy
73°F / 23°C 68°F / 20°C 83% 29.89 in
(1012 mb)
WNW 6.9 mph
(WNW 11 kph)
- 10SM
20:52
Partly Cloudy
75°F / 24°C 70°F / 21°C 83% 29.89 in
(1012 mb)
Calm - 10SM
19:52
Partly Cloudy
81°F / 27°C 66°F / 19°C 62% 29.86 in
(1011 mb)
NW 4.6 mph
(NW 7 kph)
- 10SM
18:52
Mostly Cloudy
84°F / 29°C 66°F / 19°C 55% 29.83 in
(1010 mb)
SW 3.5 mph
(SW 6 kph)
- 10SM
17:52
Clear
86°F / 30°C 66°F / 19°C 52% 29.83 in
(1010 mb)
SSW 4.6 mph
(SSW 7 kph)
- 10SM
16:52
Partly Cloudy
88°F / 31°C 64°F / 18°C 46% 29.83 in
(1010 mb)
SW 6.9 mph
(SW 11 kph)
- 10SM
15:52
Partly Cloudy
88°F / 31°C 64°F / 18°C 46% 29.83 in
(1010 mb)
SW 8.1 mph
(SW 13 kph)
- 10SM
14:52
Partly Cloudy
90°F / 32°C 63°F / 17°C 41% 29.83 in
(1010 mb)
SW 6.9 mph
(SW 11 kph)
- 10SM
13:52
Partly Cloudy
88°F / 31°C 61°F / 16°C 40% 29.86 in
(1011 mb)
SW 11.5 mph
(SW 19 kph)
- 10SM
12:52
Partly Cloudy
88°F / 31°C 61°F / 16°C 40% 29.89 in
(1012 mb)
SW 10.4 mph
(SW 17 kph)
- 10SM
11:52
Partly Cloudy
88°F / 31°C 63°F / 17°C 43% 29.89 in
(1012 mb)
SSW 8.1 mph
(SSW 13 kph)
- 10SM
10:52
Partly Cloudy
88°F / 31°C 66°F / 19°C 49% 29.89 in
(1012 mb)
SW 6.9 mph
(SW 11 kph)
- 10SM
09:52
Partly Cloudy
86°F / 30°C 64°F / 18°C 49% 29.89 in
(1012 mb)
WNW 5.8 mph
(WNW 9 kph)
- 10SM
08:52
Partly Cloudy
82°F / 28°C 68°F / 20°C 62% 29.89 in
(1012 mb)
Variable 5.8 mph
(Variable 9 kph)
- 10SM
07:52
Partly Cloudy
77°F / 25°C 66°F / 19°C 69% 29.89 in
(1012 mb)
SW 8.1 mph
(SW 13 kph)
- 10SM
06:52
Partly Cloudy
73°F / 23°C 66°F / 19°C 78% 29.89 in
(1012 mb)
SW 6.9 mph
(SW 11 kph)
- 10SM
06:03
Partly Cloudy
72°F / 22°C 66°F / 19°C 83% 29.89 in
(1012 mb)
Calm - 10SM
05:52
Clear
72°F / 22°C 64°F / 18°C 78% 29.89 in
(1012 mb)
SW 6.9 mph
(SW 11 kph)
- 10SM
04:52
Clear
70°F / 21°C 63°F / 17°C 78% 29.86 in
(1011 mb)
SW 6.9 mph
(SW 11 kph)
- 10SM
03:52
Clear
72°F / 22°C 64°F / 18°C 78% 29.89 in
(1012 mb)
NW 5.8 mph
(NW 9 kph)
- 10SM
02:52
Clear
72°F / 22°C 64°F / 18°C 78% 29.89 in
(1012 mb)
SW 6.9 mph
(SW 11 kph)
- 10SM
01:52
Clear
72°F / 22°C 64°F / 18°C 78% 29.89 in
(1012 mb)
SW 5.8 mph
(SW 9 kph)
- 10SM
00:52
Clear
73°F / 23°C 64°F / 18°C 74% 29.89 in
(1012 mb)
SW 6.9 mph
(SW 11 kph)
- 10SM
Time Weather Temperature Dewpoint Humidity Pressure Winds Precip Visibility


Weather for websites

WeatherForYou.com, LLC is not responsible for any damages or problems caused by this service. Current weather conditions are obtained from the closest station including government and personal stations which may have varying degrees of accuracy. Weather forecasts are derived from the NOAA NDFD. Like all things, this site belongs to Jesus Christ... He just trusts us to maintain it. If you have any questions or comments email webmaster@weatherforyou.com

Copyright © 2015, WeatherForYou.com LLC. All rights reserved.